Indianapolis, IN

4:56 AM EDT on September 15, 2019 (GMT -0400)
Indianapolis International

Weather History for KIND - May, 2019

Change the Weather History Date:

Friday, May 3, 2019

  Actual Average Record
Temperature  
Mean Temperature 58 °F -  
Max Temperature 63 °F - 86 °F (1949)
Min Temperature 52 °F - 29 °F (2005)
Degree Days  
Heating Degree Days 7    
Month to date heating degree days 9  
Growing Degree Days 8 (Base 50)    
Moisture  
Dew Point 56 °F    
Average Humidity 89    
Maximum Humidity 100    
Minimum Humidity 78    
Precipitation  
Precipitation 0.13 in - 1.56 in (1942)
Month to date precipitation 0.44  
Year to date precipitation 17.92  
Snow  
Snow 0.00 in - - ()
Month to date snowfall 0.0  
Snow Depth 0.00 in    
Sea Level Pressure  
Sea Level Pressure 29.99 in    
Wind  
Wind Speed 7 mph (NNW)    
Max Wind Speed 14 mph    
Max Gust Speed 16 mph    
Visibility 6 miles    
Events Rain    
T = Trace of Precipitation, MM = Missing Value Source: NWS Daily Summary

Daily Weather History Graph

Daily Weather History Graph

Search for Another Location

Airport or City:

Astronomy

May. 03, 2019 Rise Set
Actual Time 6:43 AM EDT 8:41 PM EDT
Civil Twilight 6:14 AM EDT 9:10 PM EDT
Nautical Twilight 5:38 AM EDT 9:46 PM EDT
Astronomical Twilight 5:00 AM EDT 10:25 PM EDT
Moon 6:24 AM EDT (5/3) 7:28 PM EDT (5/3)
Length of Visible Light 14h 56m
Length of Day
13h 57m
Waning Crescent, 2% of the Moon is Illuminated
May 3
Waning Crescent
May 4
New
May 11
First Quarter
May 18
Full
May 26
Last Quarter

Hourly Weather History & Observations

Time (EDT) Temp. Dew Point Humidity Pressure Visibility Wind Dir Wind Speed Gust Speed Precip Events Conditions
12:54 AM 62.1 °F 60.1 °F 93% 30.03 in 10.0 mi WNW 3.5 mph - N/A   Overcast
1:54 AM 62.1 °F 61.0 °F 96% 30.01 in 10.0 mi West 3.5 mph - 0.01 in Rain Light Rain
2:54 AM 61.0 °F 61.0 °F 100% 30.01 in 5.0 mi Calm Calm - 0.02 in Rain Light Rain
3:54 AM 62.1 °F 61.0 °F 96% 29.99 in 5.0 mi NNW 4.6 mph - 0.08 in Rain Light Rain
4:28 AM 61.0 °F 61.0 °F 100% 30.00 in 8.0 mi NW 3.5 mph - 0.01 in Rain Light Rain
4:41 AM 61.0 °F 61.0 °F 100% 30.00 in 5.0 mi NNW 4.6 mph - 0.01 in Rain Light Rain
4:54 AM 61.0 °F 61.0 °F 100% 29.99 in 6.0 mi NNW 4.6 mph - 0.02 in Rain Light Rain
5:27 AM 60.1 °F 59.0 °F 96% 29.99 in 1.5 mi North 11.5 mph - 0.00 in   Overcast
5:38 AM 59.0 °F 57.9 °F 96% 29.98 in 0.8 mi North 11.5 mph - 0.00 in   Light Drizzle
5:54 AM 57.9 °F 57.9 °F 100% 29.98 in 0.8 mi NNW 10.4 mph - 0.00 in   Light Drizzle
6:01 AM 57.0 °F 57.0 °F 100% 29.98 in 1.8 mi North 11.5 mph - 0.00 in   Light Drizzle
6:06 AM 57.0 °F 55.9 °F 96% 29.98 in 3.0 mi North 11.5 mph - 0.00 in   Light Drizzle
6:26 AM 55.9 °F 55.9 °F 100% 29.98 in 1.2 mi NNW 9.2 mph - 0.00 in   Overcast
6:45 AM 55.9 °F 55.0 °F 97% 29.99 in 2.5 mi North 8.1 mph - 0.00 in   Overcast
6:54 AM 55.9 °F 55.0 °F 97% 29.98 in 3.0 mi NNE 10.4 mph - 0.00 in   Overcast
7:13 AM 55.9 °F 55.0 °F 97% 29.98 in 2.0 mi North 9.2 mph - N/A   Overcast
7:54 AM 55.0 °F 54.0 °F 96% 29.99 in 2.0 mi North 6.9 mph - N/A   Overcast
8:05 AM 55.0 °F 54.0 °F 96% 30.00 in 1.5 mi North 5.8 mph - N/A   Overcast
8:54 AM 54.0 °F 53.1 °F 97% 30.01 in 1.2 mi NNW 10.4 mph - N/A   Overcast
9:08 AM 53.1 °F 53.1 °F 100% 30.01 in 0.8 mi North 11.5 mph - N/A   Overcast
9:50 AM 53.6 °F 51.8 °F 94% 30.02 in 1.5 mi North 10.4 mph - N/A   Overcast
9:54 AM 53.1 °F 52.0 °F 96% 30.02 in 1.5 mi North 9.2 mph - N/A   Overcast
10:33 AM 54.0 °F 52.0 °F 93% 30.01 in 5.0 mi North 8.1 mph - N/A   Overcast
10:40 AM 54.0 °F 52.0 °F 93% 30.02 in 6.0 mi North 6.9 mph - N/A   Overcast
10:54 AM 54.0 °F 52.0 °F 93% 30.02 in 6.0 mi NNW 11.5 mph - N/A   Overcast
11:54 AM 55.9 °F 53.1 °F 90% 30.01 in 7.0 mi North 5.8 mph - N/A   Overcast
12:25 PM 57.0 °F 54.0 °F 89% 30.01 in 2.0 mi North 4.6 mph - N/A   Overcast
12:54 PM 55.9 °F 55.0 °F 97% 30.00 in 2.5 mi NNW 6.9 mph - 0.00 in   Light Drizzle
1:26 PM 59.0 °F 55.9 °F 90% 29.99 in 4.0 mi NNE 5.8 mph - 0.00 in   Light Drizzle
1:44 PM 61.0 °F 55.9 °F 83% 29.99 in 10.0 mi North 4.6 mph - 0.00 in   Overcast
1:54 PM 61.0 °F 55.9 °F 83% 29.98 in 8.0 mi NW 3.5 mph - 0.00 in   Overcast
2:49 PM 62.6 °F 55.4 °F 77% 29.99 in 9.0 mi NW 5.8 mph - N/A   Overcast
2:54 PM 62.1 °F 55.9 °F 80% 29.99 in 10.0 mi NNW 6.9 mph - N/A   Overcast
3:05 PM 63.0 °F 55.9 °F 78% 29.99 in 10.0 mi NW 6.9 mph - N/A   Overcast
3:54 PM 61.0 °F 55.0 °F 81% 29.98 in 10.0 mi NNW 10.4 mph - N/A   Overcast
4:43 PM 61.0 °F 55.9 °F 83% 29.98 in 10.0 mi North 6.9 mph - N/A   Overcast
4:54 PM 62.1 °F 55.9 °F 80% 29.97 in 10.0 mi North 5.8 mph - N/A   Overcast
5:54 PM 62.1 °F 55.9 °F 80% 29.97 in 10.0 mi NNW 5.8 mph - N/A   Overcast
6:54 PM 61.0 °F 55.0 °F 81% 29.97 in 10.0 mi North 9.2 mph - N/A   Overcast
7:54 PM 60.1 °F 55.0 °F 83% 29.97 in 10.0 mi NNW 10.4 mph - N/A   Overcast
8:54 PM 59.0 °F 54.0 °F 83% 29.99 in 10.0 mi NNW 9.2 mph - N/A   Overcast
9:54 PM 57.0 °F 53.1 °F 87% 30.00 in 10.0 mi NNW 9.2 mph - N/A   Overcast
10:35 PM 57.0 °F 53.1 °F 87% 30.00 in 10.0 mi North 8.1 mph - N/A   Overcast
10:54 PM 57.0 °F 53.1 °F 87% 30.00 in 10.0 mi North 8.1 mph - N/A   Overcast
11:54 PM 55.9 °F 52.0 °F 87% 29.99 in 10.0 mi NNE 8.1 mph - N/A   Overcast